Regional Weather Roundup
Issued by NWS

Home | Current Version | Previous Version | Text Only | Print | Product List | Glossary On
Versions: 1 2 3 4 5 6 7 8 9 10 11 12 13 14 15 16 17 18 19 20 21 22 23 24 25 26 27
000
ASUS45 KTFX 250810
RWRMT
MONTANA REGIONAL WEATHER ROUNDUP
NATIONAL WEATHER SERVICE GREAT FALLS MT
200 AM MDT TUE APR 25 2017

NOTE: "FAIR" INDICATES FEW OR NO CLOUDS BELOW 12000 FEET WITH NO
SIGNIFICANT WEATHER AND/OR OBSTRUCTIONS TO VISIBILITY.

MTZ001>007-043-250900-
WEST OF THE DIVIDE

CITY           SKY/WX    TMP DP  RH WIND       PRES   REMARKS
KALISPELL      LGT RAIN  41  40  96 SW6       29.74R
MISSOULA       MOCLDY    39  38  96 CALM      29.76S
BUTTE          CLOUDY    34  32  92 S3        29.70R
MULLAN PASS    FOG       30  30 100 VRB7      29.74R VSB 1   WCI  23
DEER LODGE       N/A     39  34  81 NW8       29.72S
EUREKA           N/A     39  37  93 CALM      29.74R
HAMILTON         N/A     39  37  93 CALM      29.75R
LIBBY            N/A     36  36 100 CALM      29.75R
$$

MTZ008-052>055-250900-
SOUTHWEST MONTANA

CITY           SKY/WX    TMP DP  RH WIND       PRES   REMARKS
BOZEMAN        CLOUDY    40  37  89 CALM      29.65R
DILLON         LGT RAIN  37  33  85 NW7       29.67R WCI  32
W YELLOWSTONE  LGT SNOW  32  32 100 SW6       29.63S WCI  26
ENNIS          CLOUDY    36  34  93 CALM      29.69S
THREE FORKS      N/A     43  43 100 CALM      29.69R
$$

MTZ009-010-012-014-046-048-049-054-250900-
EAST SLOPES AND CENTRAL MONTANA

CITY           SKY/WX    TMP DP  RH WIND       PRES   REMARKS
CUT BANK       LGT RAIN  38  37  97 N9        29.73R WCI  31
GREAT FALLS    CLOUDY    41  37  86 CALM      29.71R
MALMSTROM AFB  MOCLDY    40  38  95 CALM      29.72R
HELENA         LGT RAIN  43  40  89 W5        29.69R
AUGUSTA        MOCLDY    37  37 100 W9        29.72R WCI  30
BOWMANS CRNR   MOCLDY    35  34  96 NW9       29.70R WCI  28
CHOTEAU          N/A     41  39  93 CALM      29.74R
FAIRFIELD      MOCLDY    38  35  91 NW8       29.71R WCI  32
POWER          MOCLDY    38  37  97 NW8       29.70R
RAYNESFORD     MOCLDY    40  37  87 E5        29.70R
ULM            CLOUDY    42  40  94 NW5       29.71R
$$

MTZ011-013-016-021-045-047-050-051-250900-
NORTH CENTRAL MONTANA

CITY           SKY/WX    TMP DP  RH WIND       PRES   REMARKS
HAVRE          CLOUDY    34  29  82 E23       29.76R WCI  22
LEWISTOWN      CLOUDY    36  34  92 E15       29.70R WCI  27
N BAR RANCH    FOG       34  34 100 SE6       29.74R VSB<1/4 WCI  29
CHINOOK          N/A     34  27  75 E15G24    29.81R WCI  24
DENTON         LGT RAIN  39  38  95 MISG      29.68R
FORT BENTON      N/A     43  39  87 MISG      29.73R
GEYSER         MOCLDY    39  37  92 CALM      29.70R
GRASS RANGE    CLOUDY    36  35  99 E9        29.70R WCI  29
JUDITH GAP     DRIZZLE   38  37  97 NW15      29.68R WCI  29
STANFORD       LGT RAIN  37  36  95 W7        29.69S
WINIFRED       MOCLDY    35  35  98 E18       29.71R FOG     WCI  25
$$

MTZ017>020-022>027-061-062-250900-
NORTHEAST MONTANA

CITY           SKY/WX    TMP DP  RH WIND       PRES   REMARKS
GLASGOW        CLOUDY    30  23  75 E13       29.84R WCI  20
JORDAN           N/A     32  27  81 E13       29.78R WCI  22
SIDNEY         CLOUDY    31  27  85 E12       29.84R WCI  22
WOLF POINT     CLOUDY    32  26  78 E15       29.85S WCI  22
MALTA          CLOUDY    32  27  80 E14       29.84R WCI  22
PLENTYWOOD       N/A     27  27 100 NE13      29.87R WCI  16
POPLAR           N/A     30  25  80 NE13      29.86S WCI  20
SCOBEY           N/A     27  19  71 NE7       29.85R WCI  20
$$

MTZ028>42-056>058-250900-
SOUTHCENTRAL AND SOUTHEAST MONTANA

CITY           SKY/WX    TMP DP  RH WIND       PRES   REMARKS
BAKER          CLOUDY    30  27  88 NE15      29.74R WCI  19
BILLINGS       LGT RAIN  39  38  96 NE18G26   29.65S WCI  30
LIVINGSTON     RAIN      35  34  96 NE3       29.66R FOG
MILES CITY     CLOUDY    35  29  78 NE20      29.73R WCI  24
BIG TIMBER     CLOUDY    37  36  93 N8        29.69R FOG     WCI  31
EKALAKA          N/A     30  27  89 NE13      29.68F WCI  20
LAUREL           N/A     40  36  86 N13       29.67R
ROUNDUP          N/A     37  32  82 NE10      29.65R WCI  30
$$

REGIONAL REPORTS...DAKOTAS

CITY           SKY/WX    TMP DP  RH WIND       PRES   REMARKS
WILLISTON      CLOUDY    31  24  75 NE10      29.86R WCI  22
MINOT          CLOUDY    31  26  82 N10       29.81F WCI  22
DICKINSON      CLOUDY    28  26  92 NE12      29.74R WCI  18
BEACH          CLOUDY    28  28 100 E9        29.80R WCI  20
TIOGA          CLOUDY    27  27 100 NE21      29.84R WCI  13
WATFORD CITY   CLOUDY    30  27  86 NE14      29.82S WCI  20
BISMARCK       CLOUDY    33  29  85 NE15G22   29.76S WCI  23
GRAND FORKS    CLOUDY    33  30  88 N18G26    29.71S WCI  22
FARGO          CLOUDY    34  32  92 N25G31    29.65R WCI  21
BUFFALO SD       N/A     31  29  92 NE16      29.63S WCI  20
RAPID CITY     CLOUDY    37  34  89 E7        29.65S WCI  32
$$

REGIONAL REPORTS...WYOMING/IDAHO/WASHINGTON

CITY           SKY/WX    TMP DP  RH WIND       PRES   REMARKS
GILLETTE       RAIN      41  41 100 NE18      29.50F
SHERIDAN       LGT SNOW  33  32  96 W5        29.63R FOG
BUFFALO WY     SNOW      34  31  88 NW20G29   29.55F VSB 1/2 WCI  23
CODY           CLOUDY    39  35  86 N12       29.61S WCI  32
YELLOWSTONE LA   N/A     29  29 100 CALM      29.64S
IDAHO FALLS    CLOUDY    39  37  92 SW16      29.69S WCI  30
SALMON         CLOUDY    36  34  93 CALM      29.72R
BOISE          CLOUDY    45  40  82 NW16      29.80R
SPOKANE        CLOUDY    45  38  76 SW12      29.78R
$$

REGIONAL REPORTS...ALBERTA

CITY           SKY/WX    TMP DP  RH WIND       PRES   REMARKS
EDMONTON       CLOUDY    32  30  93 W5        29.87R
CALGARY        LGT SNOW  30  28  93 N15       29.80S FOG     WCI  19
LETHBRIDGE     LGT RAIN  37  37 100 E13       29.75R WCI  29
MEDICINE HAT   CLOUDY    34  30  86 E15G24    29.80R WCI  24
WATERTON GATE    N/A     34  32  93 CALM        N/A
CARDSTON         N/A     36  36 100 NW3         N/A
MILK RIVER       N/A     39  37  93 E3          N/A
$$

REGIONAL REPORTS...SASKATCHEWAN

CITY           SKY/WX    TMP DP  RH WIND       PRES   REMARKS
SWIFT CURRENT  CLOUDY    27  25  93 E13       29.86S WCI  16
REGINA         CLOUDY    27  21  80 E9        29.94S WCI  17
SASKATOON      PTCLDY    25  19  80 E8        30.01R WCI  16
VAL MARIE        N/A     28  23  80 E13         N/A  WCI  18
ROCKGLEN         N/A     25  25 100 E3          N/A
$$




USA.gov is the U.S. government's official web portal to all federal, state and local government web resources and services.